This is the latest recevied weather packets stored in our database for station/object KE8RXN. If no packets are shown the sender has not sent any weather packets the latest 10 day(s).
| Time | Temp. | Humidity | Pressure | Rain* | Wind** | Luminosity | Snow |
|---|---|---|---|---|---|---|---|
| 1777470948 | 10° C | 84% | 1016.3 hPa | 0 mm | - | 95 W/m² | - |
| 1777470645 | 10° C | 85% | 1016.1 hPa | 0 mm | - | 137 W/m² | - |
| 1777470341 | 10° C | 86% | 1016 hPa | 0 mm | - | 161 W/m² | - |
| 1777470038 | 9.44° C | 87% | 1016.1 hPa | 0 mm | - | 129 W/m² | - |
| 1777469733 | 9.44° C | 87% | 1016.1 hPa | 0 mm | - | 180 W/m² | - |
| 1777469430 | 9.44° C | 87% | 1016.2 hPa | 0 mm | - | 141 W/m² | - |
| 1777469125 | 9.44° C | 88% | 1016.2 hPa | 0 mm | - | 158 W/m² | - |
| 1777468819 | 9.44° C | 89% | 1016.3 hPa | 0 mm | - | 112 W/m² | - |
| 1777468516 | 8.89° C | 88% | 1016.5 hPa | 0 mm | - | 100 W/m² | - |
| 1777468212 | 8.89° C | 88% | 1016.4 hPa | 0 mm | - | 78 W/m² | - |
| 1777467909 | 8.89° C | 89% | 1016.7 hPa | 0 mm | - | 56 W/m² | - |
| 1777467605 | 8.89° C | 89% | 1016.7 hPa | 0 mm | - | 40 W/m² | - |
| 1777467300 | 8.89° C | 89% | 1016.8 hPa | 0 mm | - | 33 W/m² | - |
| 1777466996 | 8.89° C | 89% | 1016.8 hPa | 0 mm | - | 29 W/m² | - |
| 1777466694 | 8.89° C | 90% | 1016.8 hPa | 0 mm | - | 28 W/m² | - |
| 1777466391 | 8.89° C | 90% | 1016.8 hPa | 0 mm | - | 40 W/m² | - |
| 1777466087 | 8.89° C | 91% | 1016.8 hPa | 0 mm | - | 38 W/m² | - |
| 1777465784 | 8.89° C | 91% | 1016.7 hPa | 0 mm | - | 32 W/m² | - |
| 1777465479 | 8.89° C | 92% | 1017 hPa | 0 mm | - | 24 W/m² | - |
| 1777465178 | 8.89° C | 92% | 1017.1 hPa | 0 mm | - | 16 W/m² | - |
| 1777464874 | 8.89° C | 92% | 1016.9 hPa | 0 mm | - | 19 W/m² | - |
| 1777464569 | 8.89° C | 92% | 1017.1 hPa | 0 mm | - | 15 W/m² | - |
| 1777464266 | 8.89° C | 92% | 1017.2 hPa | 0 mm | - | 12 W/m² | - |
| 1777463961 | 8.89° C | 92% | 1017.1 hPa | 0 mm | - | 10 W/m² | - |
| 1777463657 | 8.89° C | 91% | 1017 hPa | 0 mm | - | 7 W/m² | - |
* Rain latest hour (hover to see other rain measurements)
** Current wind speed in m/s (hover to see current wind gust speed)